北斗三号 M15 (BEIDOU 3M15)

导读

BEIDOU-3 M16 是中国北斗三号卫星导航系统中的一颗中圆地球轨道(MEO)卫星,属于北斗三号的多频段导航星座组成部分。该卫星于2020年前后发射,用于增强北斗系统的全球定位、导航和授时能力。它搭载了高精度原子钟和多频信号发射器,支持更精确的定位服务,并提升系统在复杂环境下的稳定性与可靠性。BEIDOU-3 M16 的成功部署,进一步推动了北斗系统在全球范围内的应用与服务能力。

基本信息
目录编号:
43647
目录名称:
BEIDOU 3M15
国际标识:
2018-078A
轨道中心:
EARTH
卫星名称:
北斗三号 M15
卫星全名:
北斗三号 M15 (BEIDOU 3M15)
卫星状态:
在轨 (已飞行2799 天)
发射日期:
2018-10-15 UTC
国别 :
中国 (CN)
星等 :
--
轨道信息
数据来源 国际轨道数据 AOE轨道数据
星历时间 2026-06-13T14:15:51+0800
1天前
查看轨道信息
2026-06-13T13:00:00+0800
1天前
查看轨道信息
半长轴 27906.079km 27906.009km
偏心率 0.0007233 0.0007146
轨道倾角 54.094° 54.094°
近地点辐角 40.870° 41.038°
升交点赤经 300.124° 300.125°
平近点角 319.166° 283.689°
近地点 21507.757km 21507.93km
远地点 21548.127km 21547.814km
周期 773.229分钟 773.226分钟
每日圈数 1.862321 1.862328
详细信息
平衡模式:
三轴稳定
制造商(研发单位):
中国科学院
制造商所在国:
中国
使用方式:
暂无
工作目标:
为全球用户提供连续、稳定、可靠的北斗导航、定位服务
预期寿命:
12年
卫星简介
北斗卫星导航系统是中国着眼于国家安全和经济社会发展需要,自主建设运行的全球卫星导航系统,是为全球用户提供全天候、全天时、高精度的定位、导航和授时服务的国家重要时空基础设施。该卫星仍在工作。
2D轨道图
3D轨道图
轨道高度分析图
轨道倾角分析图
轨道综合分析图
查看轨道综合分析图